WA5KWK Weather Reports


Display with metric or nautical units.
time (UTC)temp
F
wind
direction
speed
MPH
gust
MPH
rain 1hr
in
rain 24hr
in
rain mn
in
humidity
%
barometer
mb
20260503025504 64 266 0.0 0.0 0.00 0.00 0.00 73 1010.7
20260503025004 64 266 0.0 0.0 0.00 0.00 0.00 71 1010.7
20260503024504 64 266 0.0 0.0 0.00 0.00 0.00 71 1010.6
20260503024005 64 266 0.0 0.0 0.00 0.00 0.00 71 1010.6
20260503023004 65 266 0.0 0.0 0.00 0.00 0.00 72 1010.7
20260503022504 65 266 0.0 0.0 0.00 0.00 0.00 71 1010.6
20260503022004 65 266 0.0 0.0 0.00 0.00 0.00 71 1010.7
20260503021504 66 266 0.0 0.0 0.00 0.00 0.00 70 1010.7
20260503021004 66 266 0.0 0.0 0.00 0.00 0.00 70 1010.7
20260503020503 66 266 0.0 0.0 0.00 0.00 0.00 71 1010.8
20260503020004 66 266 0.0 0.0 0.00 0.00 0.00 69 1010.7
20260503015503 66 266 0.0 0.0 0.00 0.00 0.00 70 1010.7
20260503015004 66 266 0.0 0.0 0.00 0.00 0.00 69 1010.8
20260503014504 67 266 0.0 0.0 0.00 0.00 0.00 68 1010.6
20260503014004 67 266 0.0 0.0 0.00 0.00 0.00 69 1010.8
20260503013504 67 266 0.0 0.0 0.00 0.00 0.00 69 1010.7
20260503013004 67 266 0.0 0.0 0.00 0.00 0.00 68 1010.9
20260503012504 67 266 0.0 0.0 0.00 0.00 0.00 68 1010.8
20260503012005 67 266 0.0 0.0 0.00 0.00 0.00 68 1010.7
20260503011005 67 266 0.0 0.0 0.00 0.00 0.00 71 1010.8
20260503005505 67 266 0.0 0.0 0.00 0.00 0.00 69 1010.9
20260503005005 66 266 0.0 3.0 0.00 0.00 0.00 70 1010.8
20260503004505 66 264 1.0 3.0 0.00 0.00 0.00 71 1010.8
20260503004005 67 261 2.0 3.0 0.00 0.00 0.00 71 1010.8
20260503003005 67 260 2.0 7.0 0.00 0.00 0.00 71 1011.0
20260503002505 68 267 2.0 7.0 0.00 0.00 0.00 69 1011.0
20260503002005 68 270 1.0 5.0 0.00 0.00 0.00 69 1010.9
20260503001505 69 268 2.0 3.0 0.00 0.00 0.00 68 1010.9
20260503001004 69 265 1.0 8.0 0.00 0.00 0.00 68 1010.9
20260503000505 70 224 2.0 5.0 0.00 0.00 0.00 67 1011.1
20260503000005 70 227 3.0 3.0 0.00 0.00 0.00 67 1011.0
20260502235505 70 314 2.0 5.0 0.00 0.00 0.00 66 1011.0
20260502235005 70 270 3.0 6.0 0.00 0.00 0.00 66 1011.0
20260502234504 71 299 1.0 9.0 0.00 0.00 0.00 66 1011.1
20260502234005 71 227 3.0 6.0 0.00 0.00 0.00 68 1011.1
20260502233505 71 238 2.0 5.0 0.00 0.00 0.00 65 1010.9
20260502232505 72 243 2.0 5.0 0.00 0.00 0.00 63 1011.1
20260502232005 72 199 2.0 6.0 0.00 0.00 0.00 63 1011.4
20260502231505 72 201 2.0 5.0 0.00 0.00 0.00 64 1011.4
20260502230505 72 222 3.0 6.0 0.00 0.00 0.00 64 1011.6
20260502225505 71 197 5.0 7.0 0.00 0.00 0.00 65 1011.6
20260502225005 71 248 3.0 10.0 0.00 0.00 0.00 61 1011.7
20260502224505 71 198 3.0 10.0 0.00 0.00 0.00 61 1011.8
20260502224005 71 176 6.0 12.0 0.00 0.00 0.00 61 1011.7
20260502223505 71 205 4.0 9.0 0.00 0.00 0.00 63 1011.7
20260502222504 72 204 3.0 7.0 0.00 0.00 0.00 64 1012.2
20260502222005 71 280 3.0 10.0 0.00 0.00 0.00 64 1012.2
20260502221504 72 247 3.0 9.0 0.00 0.00 0.00 61 1012.1
20260502221004 72 260 2.0 6.0 0.00 0.00 0.00 60 1012.2
20260502220505 72 251 2.0 6.0 0.00 0.00 0.00 60 1012.2
20260502220005 71 212 6.0 12.0 0.00 0.00 0.00 60 1012.4
20260502215504 72 183 5.0 9.0 0.00 0.00 0.00 59 1012.3
20260502215005 72 213 5.0 7.0 0.00 0.00 0.00 56 1012.3
20260502214005 72 204 5.0 9.0 0.00 0.00 0.00 55 1012.3
20260502212505 72 235 6.0 12.0 0.00 0.00 0.00 54 1012.6
20260502212005 72 214 6.0 10.0 0.00 0.00 0.00 56 1012.5
20260502211504 72 186 6.0 12.0 0.00 0.00 0.00 55 1012.5
20260502210505 72 224 7.0 12.0 0.00 0.00 0.00 53 1012.5
20260502205505 73 205 5.0 9.0 0.00 0.00 0.00 57 1012.5
20260502205005 73 221 6.0 13.0 0.00 0.00 0.00 52 1012.5
20260502204504 72 220 5.0 12.0 0.00 0.00 0.00 55 1012.5
20260502204009 72 210 7.0 12.0 0.00 0.00 0.00 55 1012.6
20260502203505 72 189 7.0 12.0 0.00 0.00 0.00 54 1012.6
20260502202504 72 213 6.0 12.0 0.00 0.00 0.00 57 1012.7
20260502201504 72 226 7.0 15.0 0.00 0.00 0.00 58 1012.7
20260502201005 71 202 6.0 13.0 0.00 0.00 0.00 60 1012.8
20260502200504 71 241 6.0 14.0 0.00 0.00 0.00 58 1012.7
20260502200004 71 230 5.0 12.0 0.00 0.00 0.00 60 1012.8
20260502195505 71 209 5.0 10.0 0.00 0.00 0.00 58 1012.9
20260502195005 71 195 5.0 10.0 0.00 0.00 0.00 60 1012.9
20260502194504 71 200 5.0 12.0 0.00 0.00 0.00 59 1012.9
20260502193505 71 200 5.0 10.0 0.00 0.00 0.00 58 1012.9
20260502191505 72 187 6.0 12.0 0.00 0.00 0.00 56 1012.9
20260502191004 72 211 6.0 12.0 0.00 0.00 0.00 56 1012.9
20260502190504 73 227 6.0 12.0 0.00 0.00 0.00 57 1012.9
20260502190005 72 158 6.0 12.0 0.00 0.00 0.00 58 1012.8
20260502185505 72 195 5.0 12.0 0.00 0.00 0.00 56 1012.7
20260502184504 72 200 6.0 10.0 0.00 0.00 0.00 58 1013.0
20260502183505 71 170 6.0 10.0 0.00 0.00 0.00 60 1013.2
20260502183005 71 193 5.0 12.0 0.00 0.00 0.00 61 1013.3
20260502182505 70 193 5.0 12.0 0.00 0.00 0.00 60 1013.3
20260502182005 70 232 4.0 10.0 0.00 0.00 0.00 62 1013.3
20260502181504 70 189 5.0 10.0 0.00 0.00 0.00 60 1013.3
20260502181005 70 232 5.0 12.0 0.00 0.00 0.00 61 1013.2
20260502180505 70 225 4.0 12.0 0.00 0.00 0.00 60 1013.2
20260502170504 70 180 5.0 8.0 0.00 0.00 0.00 58 1013.0
20260502163504 70 192 5.0 7.0 0.00 0.00 0.00 58 1012.9
20260502163004 69 201 3.0 7.0 0.00 0.00 0.00 61 1012.9
20260502162504 69 227 2.0 3.0 0.00 0.00 0.00 62 1012.9
20260502162004 68 233 3.0 5.0 0.00 0.00 0.00 61 1012.8
20260502161004 68 200 2.0 5.0 0.00 0.00 0.00 62 1012.8
20260502160504 68 215 2.0 5.0 0.00 0.00 0.00 62 1012.9
20260502152004 68 92 2.0 3.0 0.00 0.00 0.00 58 1012.5
20260502151505 68 92 2.0 3.0 0.00 0.00 0.00 56 1012.5
20260502151005 68 92 1.0 3.0 0.00 0.00 0.00 57 1012.5
20260502150505 68 92 0.0 1.0 0.00 0.00 0.00 58 1012.5
20260502123004 64 267 3.0 6.0 0.00 0.00 0.00 57 1011.9
20260502122504 64 267 1.0 3.0 0.00 0.00 0.00 58 1011.7
20260502122005 64 267 1.0 2.0 0.00 0.00 0.00 57 1011.7
20260502121504 64 267 0.0 2.0 0.00 0.00 0.00 57 1011.7
20260502120505 64 267 0.0 0.0 0.00 0.00 0.00 58 1011.8
20260502114004 62 267 1.0 3.0 0.00 0.00 0.00 63 1012.1
20260502113505 62 267 0.0 2.0 0.00 0.00 0.00 65 1012.1
20260502113005 62 267 0.0 0.0 0.00 0.00 0.00 67 1012.1
20260502112504 61 267 0.0 0.0 0.00 0.00 0.00 67 1012.2
20260502112005 61 267 0.0 0.0 0.00 0.00 0.00 68 1012.2
20260502111504 61 267 0.0 2.0 0.00 0.00 0.00 69 1012.3
20260502110504 61 267 1.0 2.0 0.00 0.00 0.00 70 1012.4
20260502105504 61 267 1.0 2.0 0.00 0.00 0.00 72 1012.3
20260502104504 61 267 1.0 2.0 0.00 0.00 0.00 73 1012.4
20260502103504 61 267 0.0 0.0 0.00 0.00 0.00 74 1012.5
20260502102004 61 267 1.0 3.0 0.00 0.00 0.00 77 1012.4
20260502101507 60 267 1.0 3.0 0.00 0.00 0.00 78 1012.5
20260502100504 60 267 1.0 2.0 0.00 0.00 0.00 78 1012.6
20260502091504 61 267 0.0 0.0 0.00 0.00 0.00 76 1012.9
20260502091004 61 267 0.0 0.0 0.00 0.00 0.00 76 1012.9
20260502071006 60 267 0.0 0.0 0.00 0.00 0.00 78 1013.4
20260502070504 60 267 0.0 0.0 0.00 0.00 0.00 77 1013.3
20260502070004 60 267 0.0 0.0 0.00 0.00 0.00 78 1013.5
20260502065504 60 267 0.0 0.0 0.00 0.00 0.00 78 1013.4
20260502065005 60 267 0.0 0.0 0.00 0.00 0.00 78 1013.5
20260502064504 60 267 0.0 0.0 0.00 0.00 0.00 78 1013.5
20260502064004 60 267 0.0 0.0 0.00 0.00 0.00 77 1013.4
20260502063505 60 267 0.0 0.0 0.00 0.00 0.00 77 1013.4
20260502063004 60 267 0.0 0.0 0.00 0.00 0.00 78 1013.5
20260502062504 60 267 0.0 0.0 0.00 0.00 0.00 78 1013.5
20260502062007 60 267 0.0 0.0 0.00 0.00 0.00 77 1013.5
20260502060505 61 267 0.0 0.0 0.00 0.00 0.00 77 1013.7
20260502060005 61 267 0.0 0.0 0.00 0.00 0.00 76 1013.8
20260502055504 61 267 0.0 2.0 0.00 0.00 0.00 76 1013.7
20260502055004 61 267 1.0 2.0 0.00 0.00 0.00 76 1013.7
20260502054504 61 267 1.0 2.0 0.00 0.00 0.00 76 1013.8
20260502053504 62 267 0.0 0.0 0.00 0.00 0.00 75 1013.8
20260502053004 62 267 0.0 0.0 0.00 0.00 0.00 75 1013.8
20260502052004 62 267 0.0 0.0 0.00 0.00 0.00 74 1013.8
20260502051504 62 267 0.0 0.0 0.00 0.00 0.00 74 1013.7
20260502051005 62 267 0.0 0.0 0.00 0.00 0.00 74 1013.7
20260502050505 63 267 0.0 0.0 0.00 0.00 0.00 74 1013.8
20260502050004 63 267 0.0 0.0 0.00 0.00 0.00 73 1013.8
20260502045504 63 267 0.0 0.0 0.00 0.00 0.00 73 1013.8
20260502045004 63 267 0.0 0.0 0.00 0.00 0.00 73 1013.7
20260502044504 63 267 0.0 0.0 0.00 0.00 0.00 73 1013.7
20260502044004 63 267 0.0 0.0 0.00 0.00 0.00 73 1013.7
20260502043503 63 267 0.0 0.0 0.00 0.00 0.00 73 1013.7
20260502043009 63 267 0.0 0.0 0.00 0.00 0.00 73 1013.5
20260502042504 63 267 0.0 0.0 0.00 0.00 0.00 73 1013.6
20260502042004 63 267 0.0 0.0 0.00 0.00 0.00 74 1013.6
20260502041504 63 267 0.0 0.0 0.00 0.00 0.00 74 1013.5
20260502041004 64 267 0.0 0.0 0.00 0.00 0.00 73 1013.5
20260502040504 63 267 0.0 0.0 0.00 0.00 0.00 73 1013.5
20260502040005 64 267 0.0 0.0 0.00 0.00 0.00 73 1013.4
20260502035504 64 267 0.0 0.0 0.00 0.00 0.00 73 1013.4
20260502035004 64 267 0.0 0.0 0.00 0.00 0.00 73 1013.3
20260502034005 64 267 0.0 0.0 0.00 0.00 0.00 72 1013.3
20260502033504 64 267 0.0 0.0 0.00 0.00 0.00 72 1013.3
20260502032004 65 267 0.0 0.0 0.00 0.00 0.00 71 1013.2
20260502031504 65 267 0.0 0.0 0.00 0.00 0.00 70 1013.0
20260502031005 66 267 0.0 0.0 0.00 0.00 0.00 69 1013.0
20260502030504 66 267 0.0 0.0 0.00 0.00 0.00 69 1013.0
20260502030004 66 267 0.0 0.0 0.00 0.00 0.00 68 1013.0